• In Netherlands
  • List of Countries
  • For 7 days
  • Water Temperature
  • Satellite Maps
  • Weather Map
  • Weather Widgets
  • user-avatar
    Login

    Hourly Weather Hasselt

    Today, 29 June, Thursday

    Time Temperature Precipitation Wind Pressure Humidity
    00:00 +17°C° 0 mm 2 mps 743 mmHg 97%
    01:00 +17°C° 0.2 mm 2 mps 743 mmHg 97%
    02:00 +17°C° 0.2 mm 3 mps 743 mmHg 96%
    03:00 +17°C° 0.2 mm 3 mps 743 mmHg 96%
    04:00 +17°C° 0.1 mm 3 mps 743 mmHg 95%
    05:00 +17°C° 0.1 mm 3 mps 743 mmHg 95%
    06:00 +17°C° 0.1 mm 4 mps 743 mmHg 94%
    07:00 +17°C° 0.1 mm 4 mps 744 mmHg 90%
    08:00 +18°C° 0.1 mm 4 mps 744 mmHg 87%
    09:00 +18°C° 0.1 mm 4 mps 744 mmHg 83%
    10:00 +19°C° 0.1 mm 4 mps 744 mmHg 80%
    11:00 +19°C° 0.1 mm 4 mps 744 mmHg 77%
    12:00 +20°C° 0.1 mm 4 mps 744 mmHg 73%
    13:00 +20°C° 0.2 mm 4 mps 744 mmHg 74%
    14:00 +20°C° 0.2 mm 4 mps 745 mmHg 74%
    15:00 +20°C° 0.2 mm 4 mps 745 mmHg 74%
    16:00 +20°C° 0.2 mm 4 mps 745 mmHg 77%
    17:00 +20°C° 0.2 mm 3 mps 745 mmHg 79%
    18:00 +19°C° 0.2 mm 3 mps 745 mmHg 82%
    19:00 +18°C° 0 mm 3 mps 745 mmHg 85%
    20:00 +17°C° 0 mm 3 mps 746 mmHg 88%
    21:00 +16°C° 0 mm 3 mps 746 mmHg 91%
    22:00 +14°C° 0 mm 3 mps 746 mmHg 92%
    23:00 +14°C° 0 mm 3 mps 746 mmHg 93%

    Tomorrow, 30 June, Friday

    Time Temperature Precipitation Wind Pressure Humidity
    00:00 +13°C° 0 mm 3 mps 746 mmHg 95%
    01:00 +13°C° 0 mm 3 mps 746 mmHg 95%
    02:00 +13°C° 0 mm 4 mps 746 mmHg 95%
    03:00 +13°C° 0 mm 4 mps 746 mmHg 95%
    04:00 +14°C° 0 mm 5 mps 747 mmHg 93%
    05:00 +14°C° 0 mm 5 mps 747 mmHg 91%
    06:00 +15°C° 0 mm 6 mps 747 mmHg 89%
    07:00 +15°C° 0 mm 6 mps 747 mmHg 86%
    08:00 +16°C° 0 mm 6 mps 748 mmHg 84%
    09:00 +16°C° 0 mm 6 mps 748 mmHg 81%
    10:00 +17°C° 0.1 mm 6 mps 748 mmHg 78%
    11:00 +19°C° 0.1 mm 6 mps 748 mmHg 75%
    12:00 +20°C° 0.1 mm 6 mps 748 mmHg 72%
    13:00 +20°C° 0.2 mm 6 mps 748 mmHg 72%
    14:00 +20°C° 0.2 mm 6 mps 748 mmHg 72%
    15:00 +20°C° 0.2 mm 6 mps 749 mmHg 73%
    16:00 +20°C° 0.2 mm 5 mps 749 mmHg 76%
    17:00 +19°C° 0.2 mm 4 mps 749 mmHg 79%
    18:00 +19°C° 0.2 mm 4 mps 749 mmHg 82%
    19:00 +18°C° 0.1 mm 3 mps 749 mmHg 86%
    20:00 +17°C° 0.1 mm 3 mps 750 mmHg 90%
    21:00 +16°C° 0.1 mm 3 mps 750 mmHg 94%
    22:00 +14°C° 0 mm 3 mps 750 mmHg 95%
    23:00 +14°C° 0 mm 3 mps 750 mmHg 95%

    Day after tomorrow, 1 July, Saturday

    Time Temperature Precipitation Wind Pressure Humidity
    00:00 +14°C° 0 mm 3 mps 750 mmHg 96%
    01:00 +14°C° 0 mm 4 mps 750 mmHg 96%
    02:00 +13°C° 0 mm 4 mps 750 mmHg 96%
    03:00 +13°C° 0 mm 4 mps 750 mmHg 97%
    04:00 +14°C° 0.3 mm 4 mps 751 mmHg 96%
    05:00 +14°C° 0.3 mm 5 mps 751 mmHg 95%
    06:00 +15°C° 0.3 mm 6 mps 751 mmHg 94%
    07:00 +15°C° 1.6 mm 6 mps 751 mmHg 94%
    08:00 +15°C° 1.6 mm 6 mps 751 mmHg 95%
    09:00 +15°C° 1.6 mm 6 mps 752 mmHg 95%
    10:00 +15°C° 2 mm 6 mps 752 mmHg 95%
    11:00 +15°C° 2 mm 6 mps 753 mmHg 95%
    12:00 +15°C° 2 mm 6 mps 753 mmHg 94%
    13:00 +15°C° 1.3 mm 6 mps 754 mmHg 94%
    14:00 +15°C° 1.3 mm 6 mps 754 mmHg 94%
    15:00 +15°C° 1.3 mm 6 mps 755 mmHg 93%
    16:00 +15°C° 0.3 mm 6 mps 755 mmHg 92%
    17:00 +15°C° 0.3 mm 6 mps 756 mmHg 91%
    18:00 +15°C° 0.3 mm 5 mps 756 mmHg 90%
    19:00 +15°C° 0 mm 5 mps 757 mmHg 91%
    20:00 +14°C° 0 mm 4 mps 757 mmHg 92%
    21:00 +14°C° 0 mm 4 mps 758 mmHg 93%
    22:00 +13°C° 0 mm 3 mps 758 mmHg 93%
    23:00 +12°C° 0 mm 3 mps 758 mmHg 94%

    2 July, Sunday

    Time Temperature Precipitation Wind Pressure Humidity
    00:00 +12°C° 0 mm 3 mps 759 mmHg 94%
    01:00 +12°C° 0 mm 3 mps 759 mmHg 95%
    02:00 +11°C° 0 mm 3 mps 759 mmHg 95%
    03:00 +11°C° 0 mm 3 mps 759 mmHg 96%
    04:00 +13°C° 0 mm 4 mps 759 mmHg 94%
    05:00 +14°C° 0 mm 5 mps 759 mmHg 93%
    06:00 +15°C° 0 mm 5 mps 759 mmHg 91%
    07:00 +16°C° 0.1 mm 6 mps 759 mmHg 89%
    08:00 +16°C° 0.1 mm 6 mps 759 mmHg 87%
    09:00 +17°C° 0.1 mm 7 mps 759 mmHg 85%
    10:00 +17°C° 0.3 mm 6 mps 759 mmHg 87%
    11:00 +17°C° 0.3 mm 6 mps 760 mmHg 89%
    12:00 +17°C° 0.3 mm 6 mps 760 mmHg 91%
    13:00 +17°C° 0.1 mm 6 mps 760 mmHg 87%
    14:00 +19°C° 0.1 mm 6 mps 761 mmHg 84%
    15:00 +19°C° 0.1 mm 6 mps 761 mmHg 80%
    16:00 +17°C° 0 mm 5 mps 762 mmHg 79%
    17:00 +18°C° 0 mm 4 mps 762 mmHg 79%
    18:00 +17°C° 0 mm 4 mps 762 mmHg 79%
    19:00 +16°C° 0 mm 3 mps 763 mmHg 81%
    20:00 +13°C° 0 mm 3 mps 763 mmHg 84%
    21:00 +13°C° 0 mm 2 mps 764 mmHg 87%
    22:00 +12°C° 0 mm 2 mps 764 mmHg 89%
    23:00 +11°C° 0 mm 1 mps 764 mmHg 91%

    3 July, Monday

    Time Temperature Precipitation Wind Pressure Humidity
    00:00 +10°C° 0 mm 1 mps 764 mmHg 92%
    01:00 +10°C° 0 mm 1 mps 764 mmHg 92%
    02:00 +10°C° 0 mm 1 mps 764 mmHg 93%
    03:00 +9°C° 0 mm 2 mps 764 mmHg 93%
    04:00 +10°C° 0 mm 2 mps 764 mmHg 90%
    05:00 +13°C° 0 mm 2 mps 764 mmHg 87%
    06:00 +14°C° 0 mm 2 mps 764 mmHg 85%
    07:00 +16°C° 0 mm 3 mps 764 mmHg 79%
    08:00 +17°C° 0 mm 3 mps 764 mmHg 74%
    09:00 +19°C° 0 mm 3 mps 764 mmHg 69%
    10:00 +20°C° 0 mm 3 mps 763 mmHg 67%
    11:00 +21°C° 0 mm 4 mps 763 mmHg 65%
    12:00 +22°C° 0 mm 4 mps 763 mmHg 63%
    13:00 +22°C° 0.1 mm 4 mps 763 mmHg 64%
    14:00 +23°C° 0.1 mm 4 mps 762 mmHg 64%
    15:00 +23°C° 0.1 mm 4 mps 762 mmHg 65%
    16:00 +22°C° 0.2 mm 3 mps 762 mmHg 69%
    17:00 +22°C° 0.2 mm 3 mps 762 mmHg 73%
    18:00 +21°C° 0.2 mm 2 mps 762 mmHg 78%
    19:00 +20°C° 0 mm 2 mps 762 mmHg 81%
    20:00 +18°C° 0 mm 2 mps 762 mmHg 84%
    21:00 +16°C° 0 mm 2 mps 762 mmHg 87%
    22:00 +15°C° 0 mm 2 mps 762 mmHg 87%
    23:00 +15°C° 0 mm 2 mps 762 mmHg 87%

    4 July, Tuesday

    Time Temperature Precipitation Wind Pressure Humidity
    00:00 +14°C° 0 mm 2 mps 762 mmHg 86%
    01:00 +14°C° 0 mm 2 mps 761 mmHg 87%
    02:00 +14°C° 0 mm 2 mps 761 mmHg 87%
    03:00 +13°C° 0 mm 2 mps 761 mmHg 88%
    04:00 +13°C° 0 mm 3 mps 761 mmHg 86%
    05:00 +14°C° 0 mm 3 mps 761 mmHg 85%
    06:00 +16°C° 0 mm 3 mps 761 mmHg 83%
    07:00 +18°C° 0 mm 3 mps 760 mmHg 79%
    08:00 +20°C° 0 mm 3 mps 760 mmHg 74%
    09:00 +21°C° 0 mm 3 mps 760 mmHg 70%
    10:00 +22°C° 0 mm 3 mps 760 mmHg 67%
    11:00 +24°C° 0 mm 3 mps 760 mmHg 64%
    12:00 +25°C° 0 mm 3 mps 759 mmHg 61%
    13:00 +25°C° 0 mm 3 mps 759 mmHg 61%
    14:00 +26°C° 0 mm 3 mps 759 mmHg 61%
    15:00 +26°C° 0 mm 3 mps 758 mmHg 61%
    16:00 +25°C° 0 mm 2 mps 758 mmHg 65%
    17:00 +25°C° 0 mm 2 mps 757 mmHg 68%
    18:00 +25°C° 0 mm 1 mps 757 mmHg 72%
    19:00 +23°C° 0 mm 1 mps 757 mmHg 76%
    20:00 +21°C° 0 mm 1 mps 757 mmHg 80%
    21:00 +19°C° 0 mm 1 mps 757 mmHg 84%
    22:00 +19°C° 0.5 mm 1 mps 756 mmHg 86%
    23:00 +19°C° 0.5 mm 1 mps 756 mmHg 88%
    Show more